Regional Weather Roundup
Issued by NWS

Home | Current Version | Previous Version | Graphics & Text | Print | Product List | Glossary On
Versions: 1 2 3 4 5 6 7 8 9 10 11 12 13 14 15 16 17 18 19 20 21 22 23 24 25 26 27 28 29 30 31 32 33 34 35 36 37 38 39 40 41 42 43 44 45 46 47 48 49 50
000
ASUS43 KLSX 261407
RWRMO

WEATHER SUMMARY FOR MISSOURI
NATIONAL WEATHER SERVICE SPRINGFIELD MO
900 AM CDT FRI AUG 26 2016

NOTE: "FAIR" INDICATES FEW OR NO CLOUDS BELOW 12,000 FEET WITH NO
       SIGNIFICANT WEATHER AND/OR OBSTRUCTIONS TO VISIBILITY.
       CURRENT SKY AND/OR WEATHER CONDITIONS ARE NOT AVAILABLE FOR
       CHILLICOTHE AND FARMINGTON.

MOZ001>031-035>038-043-044-053-054-261500-
...NORTHERN AND WESTERN MISSOURI...

CITY           SKY/WX    TMP DP  RH WIND       PRES   REMARKS
KANSAS CTY INT CLOUDY    69  65  86 SE12      30.13S
KANSAS C DTWN  CLOUDY    71  68  90 E6        30.13R
LEE`S SUMMIT   CLOUDY    69  67  93 E8        30.14S
ST JOSEPH      CLOUDY    67  65  93 E5        30.13S
CHILLICOTHE      N/A     71  66  84 CALM      30.15R
KIRKSVILLE     CLOUDY    69  65  86 NE8       30.17R

$$
MOZ066>068-077>081-088>096-101>105-261500-
...SOUTHWEST MISSOURI...

CITY           SKY/WX    TMP DP  RH WIND       PRES   REMARKS
SPRINGFIELD    CLOUDY    75  68  78 S5        30.13S
JOPLIN         CLOUDY    73  70  90 E5        30.13R
BRANSON        PTSUNNY   77  68  73 CALM      30.15S

$$
MOZ032>034-039>042-045>050-055>058-069>072-261500-
...CENTRAL MISSOURI...

CITY           SKY/WX    TMP DP  RH WIND       PRES   REMARKS
COLUMBIA       FOG       72  72 100 NE7       30.12S VSB 1/4
JEFFERSON CITY CLOUDY    75  72  90 NE3       30.11R
ROLLA          CLOUDY    74  71  91 S6        30.12S
SEDALIA        CLOUDY    73  69  87 N3        30.13S
WHITEMAN AFB   CLOUDY    71  71 100 NE6       30.12S
OSAGE BEACH    CLOUDY    70  69  97 CALM      30.13R

$$
MOZ051-052-059>065-261500-
...EAST CENTRAL MISSOURI...

CITY           SKY/WX    TMP DP  RH WIND       PRES   REMARKS
ST LOUIS INTL  CLOUDY    77  68  73 E5        30.11S
SPIRIT OF STL  CLOUDY    77  72  84 CALM      30.09S
ST CHARLES     CLOUDY    75  73  93 NE5       30.10S

$$
MOZ072>076-082>087-097>100-106>115-261500-
...SOUTH CENTRAL AND SOUTHEAST MISSOURI...

CITY           SKY/WX    TMP DP  RH WIND       PRES   REMARKS
CAPE GIRARDEAU PTSUNNY   81  75  82 CALM      30.10S
FARMINGTON     PTSUNNY   78  75  90 CALM      30.13F
POPLAR BLUFF   CLOUDY    82  77  84 CALM      30.10S HX  90
WEST PLAINS    CLOUDY    79  71  76 CALM      30.16S

$$


USA.gov is the U.S. government's official web portal to all federal, state and local government web resources and services.